SL-14 DEB, 45654

Orbit data source: Space-Track

SL-14 DEB, 45654 is space debris in LEO originally from a launch on Thu, 15 Aug 1991 UTC launched from the Plesetsk Missile And Space Complex (PKMTR). Debris objects in space refer to the collection of defunct objects orbiting the Earth. Examples of debris include non-operational satellites, rocket bodies, and fragments generated from explosions, collisions, or faulty payload assembly.

Loading next visibility...
Identifier
45654, 1991-056CY
Orbit
LEO
Country
Flag of CISCIS
Related business
Manufacturer
Unknown
Mission
Spacecraft
Bus & Motor
Unknown
Mass
Unknown
Launch date (UTC)
1991-08-15 (35 years ago)
Launch vehicle
Unknown
Launch site
Plesetsk Missile And Space Complex (PKMTR)
Object type
Payload
Rocket body
Debris
Shape & HBR
Unknown shape, 0.1 m
Radar Cross Section
Small (<0.1 m²)

Expand to show TLE details & history
Last TLE update: 2 days ago

TLE from 2 days ago
0 SL-14 DEB
1 45654U 91056CY  26256.43343634  .00000421  00000-0  95777-3 0  9991
2 45654  82.5707  65.4047 0029322 170.5672 189.6011 13.23865526316251
Epoch: 2026-09-13T10:24Z
TLE epoch observation values (Epoch: 2026-09-13T10:24:08.899Z)
Latitude
-0.00006°
Longitude
-83.06054°
Altitude
1,194.637 km
Speed
7.246 km/s
True Right ascension
04h 21m 37s
True Declination
0° 00' 00"
Sunlit
Object was in daylight at epoch
Visualization orbit readout
Latitude
Unknown
Longitude
Unknown
Altitude
Unknown
Speed
Unknown
Apparent Right ascension
Unknown
Apparent Declination
Unknown
Sunlit
N/A
Visualization observer readout
Local Sidereal Time
15:17:09
Azimuth
Unknown
Elevation
Unknown
Doppler factor
Unknown
Orbital elements
Apogee altitude
1,189.35 km
Perigee altitude
1,145.101 km
Semi-major axis
7,545.362 km
Eccentricity
0.00293
Inclination
82.5707°
RAAN
65.4047°
Arg. of periapsis
170.5672°
True anomaly
189.54526°
Mean anomaly
189.6011°
Eccentric anomaly
189.57316°
Mean motion
3.31149 °/min
Orbital period
108.71 mins
BSTAR
0.00095777
Loading maneuver chart data...
Computing Atmospheric mass density...
Loading historical data...
Loading historical data...
Loading historical data...
Loading historical data...
Loading historical data...
Loading historical data...
Loading historical data...

Documentation

Showing up to 5 results
|